Weather History for CYVR - April, 2014

Change the Weather History Date:

Sunday, April 13, 2014

  Actual Average Record
Temperature  
Mean Temperature 48 °F -  
Max Temperature 59 °F 52 °F - (-1)
Min Temperature 37 °F 40 °F - (-1)
Degree Days  
Heating Degree Days 17    
Moisture  
Dew Point 37 °F    
Average Humidity 59    
Maximum Humidity 81    
Minimum Humidity 34    
Precipitation  
Precipitation 0.00 in - - ()
Sea Level Pressure  
Sea Level Pressure 30.29 in    
Wind  
Wind Speed 4 mph ()    
Max Wind Speed 14 mph    
Max Gust Speed -    
Visibility 19.8 miles    
Events      
Averages and records for this station are not official NWS values.
T = Trace of Precipitation, MM = Missing Value Source: Averaged Metar Reports

Daily Weather History Graph

Daily Weather History Graph

Search for Another Location

Airport or City:

Trip Planner

Search our weather history database for the weather conditions in past years. The results will help you decide how hot, cold, wet, or windy it might be!

Date:

Astronomy

Apr. 13, 2014 Rise Set
Actual Time 6:24 AM PDT 8:02 PM PDT
Civil Twilight 5:51 AM PDT 8:35 PM PDT
Nautical Twilight 5:11 AM PDT 9:16 PM PDT
Astronomical Twilight 4:26 AM PDT 10:01 PM PDT
Moon 6:40 PM PDT (4/13) 5:35 AM PDT (4/13)
Length of Visible Light 14h 43m
Length of Day
13h 37m
Waxing Gibbous, 97% of the Moon is Illuminated
Apr 13
Waxing Gibbous
Apr 15
Full
Apr 22
Last Quarter
Apr 28
New
May 6
First Quarter

Hourly Weather History & Observations

Time (PDT) Temp. Windchill Dew Point Humidity Pressure Visibility Wind Dir Wind Speed Gust Speed Precip Events Conditions
12:00 AM 48.2 °F - 35.6 °F 62% 30.21 in 20.0 mi NW 2.3 mph - N/A   Partly Cloudy
1:00 AM 46.4 °F 44.3 °F 35.6 °F 66% 30.24 in 20.0 mi East 4.6 mph - N/A   Clear
2:00 AM 48.2 °F - 35.6 °F 62% 30.25 in 20.0 mi NNE 2.3 mph - N/A   Clear
3:00 AM 41.0 °F - 35.6 °F 81% 30.27 in 20.0 mi Calm Calm - N/A   Clear
4:00 AM 42.8 °F - 32.0 °F 66% 30.28 in 20.0 mi Variable 2.3 mph - N/A   Clear
5:00 AM 43 °F - 33 °F 57% 30.30 in 19 mi East 2.3 mph - -   Clear
5:00 AM 42.8 °F - 32.0 °F 66% 30.29 in 20.0 mi ENE 2.3 mph - N/A   Partly Cloudy
6:00 AM 39.2 °F - 33.8 °F 81% 30.30 in 20.0 mi Calm Calm - N/A   Partly Cloudy
7:00 AM 42.8 °F - 30.2 °F 61% 30.32 in 30.0 mi Calm Calm - N/A   Partly Cloudy
8:00 AM 46.4 °F - 37.4 °F 71% 30.33 in 30.0 mi Calm Calm - N/A   Partly Cloudy
9:00 AM 50.0 °F - 37.4 °F 62% 30.34 in 30.0 mi WNW 4.6 mph - N/A   Partly Cloudy
9:48 AM 51.8 °F - 39.2 °F 62% 30.35 in 30.0 mi WNW 13.8 mph - N/A   Partly Cloudy
10:00 AM 53.6 °F - 46.4 °F 77% 30.35 in 30.0 mi WNW 10.4 mph - N/A   Partly Cloudy
11:00 AM 54 °F - 43 °F 55% 30.36 in 28 mi WSW 8.1 mph - -   Scattered Clouds
11:00 AM 53.6 °F - 42.8 °F 67% 30.35 in 30.0 mi WSW 6.9 mph - N/A   Partly Cloudy
12:00 PM 53.6 °F - 41.0 °F 62% 30.36 in 30.0 mi WSW 8.1 mph - N/A   Partly Cloudy
1:00 PM 55.4 °F - 41.0 °F 58% 30.35 in 30.0 mi WSW 5.8 mph - N/A   Scattered Clouds
2:00 PM 57.2 °F - 39.2 °F 51% 30.34 in 30.0 mi WSW 6.9 mph - N/A   Scattered Clouds
3:00 PM 57.2 °F - 39.2 °F 51% 30.32 in 30.0 mi WSW 5.8 mph - N/A   Partly Cloudy
4:00 PM 59.0 °F - 39.2 °F 48% 30.30 in 30.0 mi West 8.1 mph - N/A   Partly Cloudy
5:00 PM 59 °F - 38 °F 34% 30.29 in 28 mi WNW 6.9 mph - -   Scattered Clouds
5:00 PM 59.0 °F - 37.4 °F 45% 30.28 in 30.0 mi WNW 8.1 mph - N/A   Partly Cloudy
6:00 PM 57.2 °F - 41.0 °F 55% 30.26 in 30.0 mi NW 6.9 mph - N/A   Partly Cloudy
7:00 PM 57.2 °F - 41.0 °F 55% 30.25 in 30.0 mi WNW 4.6 mph - N/A   Partly Cloudy
8:00 PM 51.8 °F - 41.0 °F 67% 30.23 in 30.0 mi WNW 6.9 mph - N/A   Scattered Clouds
9:00 PM 51.8 °F - 35.6 °F 54% 30.23 in 20.0 mi NNE 3.5 mph - N/A   Partly Cloudy
10:00 PM 53.6 °F - 30.2 °F 41% 30.22 in 20.0 mi NE 4.6 mph - N/A   Partly Cloudy
11:00 PM 52 °F - 32 °F 34% 30.22 in 19 mi North 1.2 mph - -   Clear
11:00 PM 51.8 °F - 32.0 °F 47% 30.21 in 20.0 mi Calm Calm - N/A   Partly Cloudy